Retour au catalogue

SPACEMOBILE-004

ActifCommunicationsVLEO
NORAD 61049·PAYLOAD·🇺🇸 United States

Lancé Sep 12, 2024 depuis Cape Canaveral Space Force Station

Loading…

Prochains Passages (prochaines 24 heures)

TLE

FraisSource: CelesTrak SupGP

Époque: Sep 14, 2026, 23:11 UTC

1 61049C 24163E   26257.96617551 -.00143190  00000+0 -64596-2 0  2576
2 61049  52.9704 256.1514 0009233  56.6024  58.4583 15.20450946    13

Suivez SPACEMOBILE-004 en temps réel avec AllMySat

Download on the App Store